contact:dominique.lefevre@mio.osupytheas.fr, maurice.libes@osupytheas.fr, didier.mallarino@osupytheas.fr
Project:EMSO http://www.emso-fr.org/EMSO-France
Depth: 2436.0 m
Title:EMSO Ligure Ouest : Data MII capteur MICROCAT
DateTime_Computer,Latitude,Longitude,Temperature,Conductivity,Pressure,DateTime_Instrument
DateTime_Computer,Latitude,Longitude,degC,S m-1,dbar,DateTime_Instrument
2020-02-21T00:00:53Z,42.805,6.029,13.2967,4.59968,2469.83,2020-2-21T02:01:28Z
2020-02-21T00:03:56Z,42.805,6.029,13.2967,4.59968,2469.867,2020-2-21T02:04:31Z
2020-02-21T00:06:59Z,42.805,6.029,13.2971,4.59971,2469.867,2020-2-21T02:07:35Z
2020-02-21T00:10:03Z,42.805,6.029,13.2968,4.59973,2469.867,2020-2-21T02:10:38Z
2020-02-21T00:13:06Z,42.805,6.029,13.2974,4.59968,2469.853,2020-2-21T02:13:41Z
2020-02-21T00:16:09Z,42.805,6.029,13.2971,4.59969,2469.853,2020-2-21T02:16:44Z
2020-02-21T00:19:12Z,42.805,6.029,13.2969,4.59968,2469.89,2020-2-21T02:19:48Z
2020-02-21T00:22:15Z,42.805,6.029,13.2967,4.59968,2469.9,2020-2-21T02:22:51Z
2020-02-21T00:25:19Z,42.805,6.029,13.2968,4.59968,2469.89,2020-2-21T02:25:54Z
2020-02-21T00:28:22Z,42.805,6.029,13.2968,4.59968,2469.876,2020-2-21T02:28:57Z
2020-02-21T00:31:25Z,42.805,6.029,13.2973,4.59969,2469.876,2020-2-21T02:32:00Z
2020-02-21T00:34:28Z,42.805,6.029,13.2972,4.59972,2469.89,2020-2-21T02:35:03Z
2020-02-21T00:37:31Z,42.805,6.029,13.2968,4.59969,2469.867,2020-2-21T02:38:07Z
2020-02-21T00:40:35Z,42.805,6.029,13.2972,4.59969,2469.89,2020-2-21T02:41:10Z
2020-02-21T00:43:38Z,42.805,6.029,13.2974,4.59970,2469.876,2020-2-21T02:44:13Z
2020-02-21T00:46:41Z,42.805,6.029,13.2974,4.59969,2469.853,2020-2-21T02:47:16Z
2020-02-21T00:49:44Z,42.805,6.029,13.2969,4.59971,2469.876,2020-2-21T02:50:19Z
2020-02-21T00:52:47Z,42.805,6.029,13.2969,4.59969,2469.876,2020-2-21T02:53:23Z
2020-02-21T00:55:51Z,42.805,6.029,13.2968,4.59968,2469.867,2020-2-21T02:56:26Z
2020-02-21T00:58:54Z,42.805,6.029,13.2973,4.59971,2469.853,2020-2-21T02:59:29Z
2020-02-21T01:01:57Z,42.805,6.029,13.2970,4.59968,2469.867,2020-2-21T03:02:32Z
2020-02-21T01:05:00Z,42.805,6.029,13.2967,4.59968,2469.853,2020-2-21T03:05:35Z
2020-02-21T01:08:03Z,42.805,6.029,13.2971,4.59968,2469.876,2020-2-21T03:08:39Z
2020-02-21T01:11:06Z,42.805,6.029,13.2970,4.59971,2469.867,2020-2-21T03:11:42Z
2020-02-21T01:14:10Z,42.805,6.029,13.2968,4.59969,2469.876,2020-2-21T03:14:45Z
2020-02-21T01:17:13Z,42.805,6.029,13.2968,4.59975,2469.9,2020-2-21T03:17:48Z
2020-02-21T01:20:16Z,42.805,6.029,13.2966,4.59969,2469.867,2020-2-21T03:20:51Z
2020-02-21T01:23:19Z,42.805,6.029,13.2971,4.59969,2469.9,2020-2-21T03:23:54Z
2020-02-21T01:26:22Z,42.805,6.029,13.2969,4.59970,2469.9,2020-2-21T03:26:58Z
2020-02-21T01:29:26Z,42.805,6.029,13.2967,4.59969,2469.853,2020-2-21T03:30:01Z
2020-02-21T01:32:29Z,42.805,6.029,13.2968,4.59971,2469.9,2020-2-21T03:33:04Z
2020-02-21T01:35:32Z,42.805,6.029,13.2971,4.59968,2469.853,2020-2-21T03:36:07Z
2020-02-21T01:38:35Z,42.805,6.029,13.2968,4.59968,2469.89,2020-2-21T03:39:10Z
2020-02-21T01:41:38Z,42.805,6.029,13.2970,4.59969,2469.914,2020-2-21T03:42:14Z
2020-02-21T01:44:41Z,42.805,6.029,13.2969,4.59969,2469.89,2020-2-21T03:45:17Z
2020-02-21T01:47:45Z,42.805,6.029,13.2968,4.59972,2469.89,2020-2-21T03:48:20Z
2020-02-21T01:50:48Z,42.805,6.029,13.2967,4.59971,2469.876,2020-2-21T03:51:23Z
2020-02-21T01:53:51Z,42.805,6.029,13.2970,4.59970,2469.9,2020-2-21T03:54:26Z
2020-02-21T01:56:54Z,42.805,6.029,13.2970,4.59969,2469.89,2020-2-21T03:57:30Z
2020-02-21T01:59:57Z,42.805,6.029,13.2974,4.59972,2469.9,2020-2-21T04:00:33Z
2020-02-21T02:03:01Z,42.805,6.029,13.2971,4.59971,2469.9,2020-2-21T04:03:36Z
2020-02-21T02:06:04Z,42.805,6.029,13.2971,4.59970,2469.876,2020-2-21T04:06:39Z
2020-02-21T02:09:07Z,42.805,6.029,13.2968,4.59977,2469.9,2020-2-21T04:09:42Z
2020-02-21T02:12:10Z,42.805,6.029,13.2970,4.59970,2469.9,2020-2-21T04:12:45Z
2020-02-21T02:15:13Z,42.805,6.029,13.2968,4.59970,2469.914,2020-2-21T04:15:49Z
2020-02-21T02:18:17Z,42.805,6.029,13.2971,4.59969,2469.914,2020-2-21T04:18:52Z
2020-02-21T02:21:20Z,42.805,6.029,13.2971,4.59971,2469.937,2020-2-21T04:21:55Z
2020-02-21T02:24:23Z,42.805,6.029,13.2970,4.59971,2469.923,2020-2-21T04:24:58Z
2020-02-21T02:27:26Z,42.805,6.029,13.2967,4.59969,2469.914,2020-2-21T04:28:01Z
2020-02-21T02:30:29Z,42.805,6.029,13.2969,4.59970,2469.937,2020-2-21T04:31:05Z
2020-02-21T02:33:32Z,42.805,6.029,13.2973,4.59971,2469.914,2020-2-21T04:34:08Z
2020-02-21T02:36:36Z,42.805,6.029,13.2967,4.59971,2469.923,2020-2-21T04:37:11Z
2020-02-21T02:39:39Z,42.805,6.029,13.2971,4.59971,2469.947,2020-2-21T04:40:14Z
2020-02-21T02:42:42Z,42.805,6.029,13.2968,4.59972,2469.923,2020-2-21T04:43:17Z
2020-02-21T02:45:45Z,42.805,6.029,13.2968,4.59973,2469.947,2020-2-21T04:46:21Z
2020-02-21T02:48:48Z,42.805,6.029,13.2972,4.59972,2469.947,2020-2-21T04:49:24Z
2020-02-21T02:51:52Z,42.805,6.029,13.2971,4.59971,2469.947,2020-2-21T04:52:27Z
2020-02-21T02:54:55Z,42.805,6.029,13.2969,4.59971,2469.914,2020-2-21T04:55:30Z
2020-02-21T02:57:58Z,42.805,6.029,13.2974,4.59971,2469.923,2020-2-21T04:58:33Z
2020-02-21T03:01:01Z,42.805,6.029,13.2968,4.59973,2469.923,2020-2-21T05:01:37Z
2020-02-21T03:04:05Z,42.805,6.029,13.2971,4.59973,2469.937,2020-2-21T05:04:40Z
2020-02-21T03:07:08Z,42.805,6.029,13.2970,4.59972,2469.937,2020-2-21T05:07:43Z
2020-02-21T03:10:11Z,42.805,6.029,13.2972,4.59976,2469.96,2020-2-21T05:10:46Z
2020-02-21T03:13:14Z,42.805,6.029,13.2971,4.59971,2469.937,2020-2-21T05:13:49Z
2020-02-21T03:16:17Z,42.805,6.029,13.2971,4.59973,2469.947,2020-2-21T05:16:53Z
2020-02-21T03:19:21Z,42.805,6.029,13.2969,4.59971,2469.947,2020-2-21T05:19:56Z
2020-02-21T03:22:24Z,42.805,6.029,13.2968,4.59978,2469.923,2020-2-21T05:22:59Z
2020-02-21T03:25:27Z,42.805,6.029,13.2969,4.59973,2469.984,2020-2-21T05:26:02Z
2020-02-21T03:28:30Z,42.805,6.029,13.2973,4.59970,2469.96,2020-2-21T05:29:06Z
2020-02-21T03:31:33Z,42.805,6.029,13.2968,4.59976,2469.97,2020-2-21T05:32:09Z
2020-02-21T03:34:37Z,42.805,6.029,13.2971,4.59978,2469.993,2020-2-21T05:35:12Z
2020-02-21T03:37:40Z,42.805,6.029,13.2968,4.59971,2469.993,2020-2-21T05:38:15Z
2020-02-21T03:40:43Z,42.805,6.029,13.2971,4.59972,2469.993,2020-2-21T05:41:18Z
2020-02-21T03:43:46Z,42.805,6.029,13.2971,4.59974,2469.993,2020-2-21T05:44:21Z
2020-02-21T03:46:49Z,42.805,6.029,13.2965,4.59971,2470.017,2020-2-21T05:47:25Z
2020-02-21T03:49:53Z,42.805,6.029,13.2970,4.59972,2470.007,2020-2-21T05:50:28Z
2020-02-21T03:52:56Z,42.805,6.029,13.2971,4.59974,2470.017,2020-2-21T05:53:31Z
2020-02-21T03:55:59Z,42.805,6.029,13.2969,4.59973,2469.97,2020-2-21T05:56:34Z
2020-02-21T03:59:02Z,42.805,6.029,13.2969,4.59972,2470.017,2020-2-21T05:59:37Z
2020-02-21T04:02:05Z,42.805,6.029,13.2976,4.59973,2470.007,2020-2-21T06:02:41Z
2020-02-21T04:05:09Z,42.805,6.029,13.2971,4.59975,2469.993,2020-2-21T06:05:44Z
2020-02-21T04:08:12Z,42.805,6.029,13.2968,4.59972,2470.017,2020-2-21T06:08:48Z
2020-02-21T04:11:15Z,42.805,6.029,13.2973,4.59971,2469.993,2020-2-21T06:11:51Z
2020-02-21T04:14:19Z,42.805,6.029,13.2969,4.59978,2469.993,2020-2-21T06:14:54Z
2020-02-21T04:17:22Z,42.805,6.029,13.2970,4.59973,2470.03,2020-2-21T06:17:57Z
2020-02-21T04:20:25Z,42.805,6.029,13.2971,4.59976,2470.04,2020-2-21T06:21:00Z
2020-02-21T04:23:28Z,42.805,6.029,13.2970,4.59973,2470.017,2020-2-21T06:24:04Z
2020-02-21T04:26:31Z,42.805,6.029,13.2971,4.59973,2470.03,2020-2-21T06:27:07Z
2020-02-21T04:29:35Z,42.805,6.029,13.2967,4.59973,2469.993,2020-2-21T06:30:10Z
2020-02-21T04:32:38Z,42.805,6.029,13.2972,4.59973,2470.04,2020-2-21T06:33:13Z
2020-02-21T04:35:41Z,42.805,6.029,13.2970,4.59973,2470.04,2020-2-21T06:36:17Z
2020-02-21T04:38:44Z,42.805,6.029,13.2970,4.59974,2469.993,2020-2-21T06:39:20Z
2020-02-21T04:41:48Z,42.805,6.029,13.2970,4.59974,2470.063,2020-2-21T06:42:23Z
2020-02-21T04:44:51Z,42.805,6.029,13.2969,4.59978,2470.03,2020-2-21T06:45:26Z
2020-02-21T04:47:54Z,42.805,6.029,13.2971,4.59976,2470.04,2020-2-21T06:48:29Z
2020-02-21T04:50:57Z,42.805,6.029,13.2967,4.59976,2470.04,2020-2-21T06:51:33Z
2020-02-21T04:54:00Z,42.805,6.029,13.2974,4.59978,2470.053,2020-2-21T06:54:36Z
2020-02-21T04:57:04Z,42.805,6.029,13.2970,4.59980,2470.04,2020-2-21T06:57:39Z
2020-02-21T05:00:07Z,42.805,6.029,13.2971,4.60000,2470.053,2020-2-21T07:00:42Z
2020-02-21T05:03:10Z,42.805,6.029,13.2968,4.59974,2470.063,2020-2-21T07:03:46Z
2020-02-21T05:06:14Z,42.805,6.029,13.2971,4.59975,2470.04,2020-2-21T07:06:49Z
2020-02-21T05:09:17Z,42.805,6.029,13.2970,4.59978,2470.03,2020-2-21T07:09:52Z
2020-02-21T05:12:20Z,42.805,6.029,13.2968,4.59976,2470.087,2020-2-21T07:12:55Z
2020-02-21T05:15:23Z,42.805,6.029,13.2974,4.59978,2470.063,2020-2-21T07:15:59Z
2020-02-21T05:18:27Z,42.805,6.029,13.2971,4.59990,2470.017,2020-2-21T07:19:02Z
2020-02-21T05:21:30Z,42.805,6.029,13.2974,4.59979,2470.063,2020-2-21T07:22:05Z
2020-02-21T05:24:33Z,42.805,6.029,13.2970,4.59974,2470.04,2020-2-21T07:25:08Z
2020-02-21T05:27:36Z,42.805,6.029,13.2969,4.59972,2470.017,2020-2-21T07:28:12Z
2020-02-21T05:30:39Z,42.805,6.029,13.2975,4.59973,2470.1,2020-2-21T07:31:15Z
2020-02-21T05:33:43Z,42.805,6.029,13.2968,4.59976,2470.063,2020-2-21T07:34:18Z
2020-02-21T05:36:46Z,42.805,6.029,13.2968,4.59973,2470.063,2020-2-21T07:37:21Z
2020-02-21T05:39:49Z,42.805,6.029,13.2972,4.59973,2470.04,2020-2-21T07:40:24Z
2020-02-21T05:42:52Z,42.805,6.029,13.2967,4.59973,2470.077,2020-2-21T07:43:28Z
2020-02-21T05:45:55Z,42.805,6.029,13.2973,4.59973,2470.077,2020-2-21T07:46:31Z
2020-02-21T05:48:59Z,42.805,6.029,13.2973,4.59973,2470.053,2020-2-21T07:49:34Z
2020-02-21T05:52:02Z,42.805,6.029,13.2971,4.59974,2470.063,2020-2-21T07:52:37Z
2020-02-21T05:55:05Z,42.805,6.029,13.2971,4.59973,2470.087,2020-2-21T07:55:40Z
2020-02-21T05:58:09Z,42.805,6.029,13.2968,4.59973,2470.077,2020-2-21T07:58:44Z
2020-02-21T06:01:12Z,42.805,6.029,13.2968,4.59976,2470.053,2020-2-21T08:01:47Z
2020-02-21T06:04:15Z,42.805,6.029,13.2974,4.59973,2470.077,2020-2-21T08:04:50Z
2020-02-21T06:07:18Z,42.805,6.029,13.2970,4.59974,2470.063,2020-2-21T08:07:54Z
2020-02-21T06:10:21Z,42.805,6.029,13.2978,4.59975,2470.087,2020-2-21T08:10:57Z
2020-02-21T06:13:25Z,42.805,6.029,13.2976,4.59976,2470.1,2020-2-21T08:14:00Z
2020-02-21T06:16:28Z,42.805,6.029,13.2974,4.59976,2470.124,2020-2-21T08:17:03Z
2020-02-21T06:19:31Z,42.805,6.029,13.2982,4.59986,2470.077,2020-2-21T08:20:06Z
2020-02-21T06:22:34Z,42.805,6.029,13.2981,4.60017,2470.087,2020-2-21T08:23:10Z
2020-02-21T06:25:37Z,42.805,6.029,13.2986,4.60006,2470.04,2020-2-21T08:26:13Z
2020-02-21T06:28:41Z,42.805,6.029,13.2982,4.60008,2470.063,2020-2-21T08:29:16Z
2020-02-21T06:31:44Z,42.805,6.029,13.2973,4.59991,2470.1,2020-2-21T08:32:19Z
2020-02-21T06:34:47Z,42.805,6.029,13.2976,4.60004,2470.077,2020-2-21T08:35:22Z
2020-02-21T06:37:50Z,42.805,6.029,13.2972,4.59994,2470.053,2020-2-21T08:38:26Z
2020-02-21T06:40:53Z,42.805,6.029,13.2974,4.59988,2470.1,2020-2-21T08:41:29Z
2020-02-21T06:43:57Z,42.805,6.029,13.2970,4.59992,2470.087,2020-2-21T08:44:32Z
2020-02-21T06:47:00Z,42.805,6.029,13.2973,4.59996,2470.063,2020-2-21T08:47:35Z
2020-02-21T06:50:03Z,42.805,6.029,13.2972,4.59990,2470.1,2020-2-21T08:50:38Z
2020-02-21T06:53:06Z,42.805,6.029,13.2971,4.59990,2470.114,2020-2-21T08:53:41Z
2020-02-21T06:56:09Z,42.805,6.029,13.2971,4.59999,2470.077,2020-2-21T08:56:45Z
2020-02-21T06:59:12Z,42.805,6.029,13.2971,4.59978,2470.087,2020-2-21T08:59:48Z
2020-02-21T07:02:16Z,42.805,6.029,13.2973,4.59978,2470.077,2020-2-21T09:02:51Z
2020-02-21T07:05:19Z,42.805,6.029,13.2970,4.59979,2470.063,2020-2-21T09:05:54Z
2020-02-21T07:08:22Z,42.805,6.029,13.2974,4.59980,2470.077,2020-2-21T09:08:57Z
2020-02-21T07:11:25Z,42.805,6.029,13.2971,4.60005,2470.087,2020-2-21T09:12:01Z
2020-02-21T07:14:28Z,42.805,6.029,13.2972,4.59983,2470.063,2020-2-21T09:15:04Z
2020-02-21T07:17:32Z,42.805,6.029,13.2971,4.59976,2470.063,2020-2-21T09:18:07Z
2020-02-21T07:20:35Z,42.805,6.029,13.2969,4.59998,2470.063,2020-2-21T09:21:10Z
2020-02-21T07:23:38Z,42.805,6.029,13.2968,4.59979,2470.04,2020-2-21T09:24:13Z
2020-02-21T07:26:41Z,42.805,6.029,13.2969,4.59980,2470.063,2020-2-21T09:27:17Z
2020-02-21T07:29:44Z,42.805,6.029,13.2971,4.59979,2470.087,2020-2-21T09:30:20Z
2020-02-21T07:32:48Z,42.805,6.029,13.2971,4.59988,2470.063,2020-2-21T09:33:23Z
2020-02-21T07:35:51Z,42.805,6.029,13.2972,4.59976,2470.053,2020-2-21T09:36:26Z
2020-02-21T07:38:54Z,42.805,6.029,13.2971,4.59976,2470.063,2020-2-21T09:39:29Z
2020-02-21T07:41:57Z,42.805,6.029,13.2970,4.59976,2470.077,2020-2-21T09:42:33Z
2020-02-21T07:45:00Z,42.805,6.029,13.2971,4.59974,2470.087,2020-2-21T09:45:36Z
2020-02-21T07:48:04Z,42.805,6.029,13.2971,4.59983,2470.063,2020-2-21T09:48:39Z
2020-02-21T07:51:07Z,42.805,6.029,13.2967,4.59978,2470.063,2020-2-21T09:51:42Z
2020-02-21T07:54:10Z,42.805,6.029,13.2976,4.59976,2470.077,2020-2-21T09:54:45Z
2020-02-21T07:57:13Z,42.805,6.029,13.2966,4.59974,2470.053,2020-2-21T09:57:49Z
2020-02-21T08:00:17Z,42.805,6.029,13.2970,4.59974,2470.1,2020-2-21T10:00:52Z
2020-02-21T08:03:20Z,42.805,6.029,13.2974,4.59976,2470.11,2020-2-21T10:03:55Z
2020-02-21T08:06:23Z,42.805,6.029,13.2974,4.59982,2470.087,2020-2-21T10:06:58Z
2020-02-21T08:09:26Z,42.805,6.029,13.2970,4.59994,2470.087,2020-2-21T10:10:02Z
2020-02-21T08:12:29Z,42.805,6.029,13.2972,4.59984,2470.063,2020-2-21T10:13:05Z
2020-02-21T08:15:33Z,42.805,6.029,13.2971,4.59981,2470.063,2020-2-21T10:16:08Z
2020-02-21T08:18:36Z,42.805,6.029,13.2970,4.59979,2470.063,2020-2-21T10:19:11Z
2020-02-21T08:21:39Z,42.805,6.029,13.2971,4.59981,2470.087,2020-2-21T10:22:14Z
2020-02-21T08:24:42Z,42.805,6.029,13.2969,4.59980,2470.077,2020-2-21T10:25:18Z
2020-02-21T08:27:45Z,42.805,6.029,13.2972,4.59978,2470.077,2020-2-21T10:28:21Z
2020-02-21T08:30:49Z,42.805,6.029,13.2972,4.59978,2470.063,2020-2-21T10:31:24Z
2020-02-21T08:33:52Z,42.805,6.029,13.2969,4.59976,2470.1,2020-2-21T10:34:27Z
2020-02-21T08:36:55Z,42.805,6.029,13.2969,4.59973,2470.063,2020-2-21T10:37:30Z
2020-02-21T08:39:58Z,42.805,6.029,13.2968,4.59973,2470.077,2020-2-21T10:40:34Z
2020-02-21T08:43:01Z,42.805,6.029,13.2968,4.59974,2470.063,2020-2-21T10:43:37Z
2020-02-21T08:46:05Z,42.805,6.029,13.2972,4.59978,2470.087,2020-2-21T10:46:40Z
2020-02-21T08:49:08Z,42.805,6.029,13.2974,4.59978,2470.053,2020-2-21T10:49:43Z
2020-02-21T08:52:11Z,42.805,6.029,13.2973,4.59976,2470.026,2020-2-21T10:52:46Z
2020-02-21T08:55:14Z,42.805,6.029,13.2972,4.59973,2470.04,2020-2-21T10:55:50Z
2020-02-21T08:58:17Z,42.805,6.029,13.2975,4.59972,2470.017,2020-2-21T10:58:53Z
2020-02-21T09:01:21Z,42.805,6.029,13.2972,4.59973,2470.053,2020-2-21T11:01:56Z
2020-02-21T09:04:24Z,42.805,6.029,13.2967,4.59975,2470.063,2020-2-21T11:04:59Z
2020-02-21T09:07:27Z,42.805,6.029,13.2970,4.59973,2470.04,2020-2-21T11:08:02Z
2020-02-21T09:10:30Z,42.805,6.029,13.2968,4.59971,2470.03,2020-2-21T11:11:06Z
2020-02-21T09:13:33Z,42.805,6.029,13.2970,4.59971,2470.04,2020-2-21T11:14:09Z
2020-02-21T09:16:37Z,42.805,6.029,13.2974,4.59972,2470.04,2020-2-21T11:17:12Z
2020-02-21T09:19:40Z,42.805,6.029,13.2967,4.59972,2470.053,2020-2-21T11:20:15Z
2020-02-21T09:22:43Z,42.805,6.029,13.2970,4.59973,2470.077,2020-2-21T11:23:18Z
2020-02-21T09:25:46Z,42.805,6.029,13.2971,4.59972,2470.04,2020-2-21T11:26:22Z
2020-02-21T09:28:50Z,42.805,6.029,13.2969,4.59976,2470.053,2020-2-21T11:29:25Z
2020-02-21T09:31:53Z,42.805,6.029,13.2971,4.59972,2470.053,2020-2-21T11:32:28Z
2020-02-21T09:34:56Z,42.805,6.029,13.2968,4.59972,2470.04,2020-2-21T11:35:32Z
2020-02-21T09:38:00Z,42.805,6.029,13.2973,4.59973,2470.053,2020-2-21T11:38:35Z
2020-02-21T09:41:03Z,42.805,6.029,13.2970,4.59973,2470.017,2020-2-21T11:41:38Z
2020-02-21T09:44:06Z,42.805,6.029,13.2968,4.59973,2470.04,2020-2-21T11:44:41Z
2020-02-21T09:47:09Z,42.805,6.029,13.2973,4.59973,2470.03,2020-2-21T11:47:45Z
2020-02-21T09:50:13Z,42.805,6.029,13.2971,4.59974,2470.017,2020-2-21T11:50:48Z
2020-02-21T09:53:16Z,42.805,6.029,13.2976,4.59975,2470.007,2020-2-21T11:53:51Z
2020-02-21T09:56:19Z,42.805,6.029,13.2970,4.59980,2469.993,2020-2-21T11:56:54Z
2020-02-21T09:59:23Z,42.805,6.029,13.2971,4.59980,2470.017,2020-2-21T11:59:58Z
2020-02-21T10:02:26Z,42.805,6.029,13.2967,4.59974,2470.017,2020-2-21T12:03:01Z
2020-02-21T10:05:29Z,42.805,6.029,13.2971,4.59973,2470.017,2020-2-21T12:06:04Z
2020-02-21T10:08:32Z,42.805,6.029,13.2969,4.59973,2469.993,2020-2-21T12:09:07Z
2020-02-21T10:11:36Z,42.805,6.029,13.2972,4.59972,2469.97,2020-2-21T12:12:11Z
2020-02-21T10:14:39Z,42.805,6.029,13.2969,4.59971,2470.04,2020-2-21T12:15:14Z
2020-02-21T10:17:42Z,42.805,6.029,13.2973,4.59971,2470.017,2020-2-21T12:18:18Z
2020-02-21T10:20:45Z,42.805,6.029,13.2971,4.59973,2470.03,2020-2-21T12:21:21Z
2020-02-21T10:23:49Z,42.805,6.029,13.2970,4.59973,2469.993,2020-2-21T12:24:24Z
2020-02-21T10:26:52Z,42.805,6.029,13.2970,4.59972,2469.993,2020-2-21T12:27:27Z
2020-02-21T10:29:55Z,42.805,6.029,13.2972,4.59973,2469.993,2020-2-21T12:30:30Z
2020-02-21T10:32:58Z,42.805,6.029,13.2975,4.59971,2469.984,2020-2-21T12:33:33Z
2020-02-21T10:36:02Z,42.805,6.029,13.2967,4.59974,2470.007,2020-2-21T12:36:37Z
2020-02-21T10:39:05Z,42.805,6.029,13.2970,4.59972,2470.007,2020-2-21T12:39:40Z
2020-02-21T10:42:08Z,42.805,6.029,13.2971,4.59972,2469.993,2020-2-21T12:42:43Z
2020-02-21T10:45:11Z,42.805,6.029,13.2967,4.59976,2469.993,2020-2-21T12:45:47Z
2020-02-21T10:48:14Z,42.805,6.029,13.2968,4.59972,2469.984,2020-2-21T12:48:50Z
2020-02-21T10:51:18Z,42.805,6.029,13.2971,4.59970,2469.993,2020-2-21T12:51:53Z
2020-02-21T10:54:21Z,42.805,6.029,13.2970,4.59971,2469.96,2020-2-21T12:54:56Z
2020-02-21T10:57:24Z,42.805,6.029,13.2967,4.59973,2470.007,2020-2-21T12:57:59Z
2020-02-21T11:00:27Z,42.805,6.029,13.2971,4.59970,2469.97,2020-2-21T13:01:03Z
2020-02-21T11:03:30Z,42.805,6.029,13.2971,4.59971,2469.97,2020-2-21T13:04:06Z
2020-02-21T11:06:34Z,42.805,6.029,13.2970,4.59972,2469.984,2020-2-21T13:07:09Z
2020-02-21T11:09:37Z,42.805,6.029,13.2968,4.59970,2470.007,2020-2-21T13:10:12Z
2020-02-21T11:12:40Z,42.805,6.029,13.2971,4.59970,2469.984,2020-2-21T13:13:15Z
2020-02-21T11:15:43Z,42.805,6.029,13.2969,4.59971,2469.956,2020-2-21T13:16:19Z
2020-02-21T11:18:47Z,42.805,6.029,13.2973,4.59973,2469.993,2020-2-21T13:19:22Z
2020-02-21T11:21:50Z,42.805,6.029,13.2971,4.59972,2469.993,2020-2-21T13:22:25Z
2020-02-21T11:24:53Z,42.805,6.029,13.2971,4.59973,2469.97,2020-2-21T13:25:28Z
2020-02-21T11:27:56Z,42.805,6.029,13.2970,4.59969,2469.97,2020-2-21T13:28:31Z
2020-02-21T11:30:59Z,42.805,6.029,13.2974,4.59970,2469.96,2020-2-21T13:31:35Z
2020-02-21T11:34:02Z,42.805,6.029,13.2972,4.59971,2469.97,2020-2-21T13:34:38Z
2020-02-21T11:37:06Z,42.805,6.029,13.2968,4.59971,2469.984,2020-2-21T13:37:41Z
2020-02-21T11:40:09Z,42.805,6.029,13.2971,4.59971,2469.97,2020-2-21T13:40:44Z
2020-02-21T11:43:12Z,42.805,6.029,13.2972,4.59971,2469.96,2020-2-21T13:43:47Z
2020-02-21T11:46:15Z,42.805,6.029,13.2969,4.59973,2469.947,2020-2-21T13:46:51Z
2020-02-21T11:49:18Z,42.805,6.029,13.2968,4.59971,2469.947,2020-2-21T13:49:54Z
2020-02-21T11:52:22Z,42.805,6.029,13.2968,4.59971,2469.947,2020-2-21T13:52:57Z
2020-02-21T11:55:25Z,42.805,6.029,13.2969,4.59970,2469.96,2020-2-21T13:56:00Z
2020-02-21T11:58:28Z,42.805,6.029,13.2968,4.59969,2469.923,2020-2-21T13:59:04Z
2020-02-21T12:01:31Z,42.805,6.029,13.2971,4.59971,2469.947,2020-2-21T14:02:07Z
2020-02-21T12:04:35Z,42.805,6.029,13.2969,4.59970,2469.923,2020-2-21T14:05:10Z
2020-02-21T12:07:38Z,42.805,6.029,13.2970,4.59971,2469.97,2020-2-21T14:08:13Z
2020-02-21T12:10:41Z,42.805,6.029,13.2971,4.59971,2469.947,2020-2-21T14:11:16Z
2020-02-21T12:13:44Z,42.805,6.029,13.2968,4.59970,2469.947,2020-2-21T14:14:20Z
2020-02-21T12:16:47Z,42.805,6.029,13.2972,4.59969,2469.923,2020-2-21T14:17:23Z
2020-02-21T12:19:51Z,42.805,6.029,13.2970,4.59970,2469.96,2020-2-21T14:20:26Z
2020-02-21T12:22:54Z,42.805,6.029,13.2971,4.59971,2469.937,2020-2-21T14:23:29Z
2020-02-21T12:25:57Z,42.805,6.029,13.2969,4.59972,2469.9,2020-2-21T14:26:33Z
2020-02-21T12:29:00Z,42.805,6.029,13.2969,4.59970,2469.9,2020-2-21T14:29:36Z
2020-02-21T12:32:04Z,42.805,6.029,13.2973,4.59970,2469.923,2020-2-21T14:32:39Z
2020-02-21T12:35:07Z,42.805,6.029,13.2971,4.59970,2469.937,2020-2-21T14:35:42Z
2020-02-21T12:38:10Z,42.805,6.029,13.2974,4.59971,2469.937,2020-2-21T14:38:45Z
2020-02-21T12:41:13Z,42.805,6.029,13.2973,4.59971,2469.914,2020-2-21T14:41:49Z
2020-02-21T12:44:16Z,42.805,6.029,13.2968,4.59971,2469.914,2020-2-21T14:44:52Z
2020-02-21T12:47:20Z,42.805,6.029,13.2971,4.59974,2469.96,2020-2-21T14:47:55Z
2020-02-21T12:50:23Z,42.805,6.029,13.2971,4.59972,2469.914,2020-2-21T14:50:58Z
2020-02-21T12:53:26Z,42.805,6.029,13.2973,4.59971,2469.937,2020-2-21T14:54:01Z
2020-02-21T12:56:29Z,42.805,6.029,13.2972,4.59971,2469.9,2020-2-21T14:57:05Z
2020-02-21T12:59:32Z,42.805,6.029,13.2972,4.59971,2469.947,2020-2-21T15:00:08Z
2020-02-21T13:02:36Z,42.805,6.029,13.2967,4.59970,2469.937,2020-2-21T15:03:11Z
2020-02-21T13:05:39Z,42.805,6.029,13.2968,4.59976,2469.937,2020-2-21T15:06:14Z
2020-02-21T13:08:42Z,42.805,6.029,13.2971,4.59974,2469.914,2020-2-21T15:09:17Z
2020-02-21T13:11:45Z,42.805,6.029,13.2976,4.59971,2469.914,2020-2-21T15:12:21Z
2020-02-21T13:14:49Z,42.805,6.029,13.2967,4.59979,2469.914,2020-2-21T15:15:24Z
2020-02-21T13:17:52Z,42.805,6.029,13.2968,4.59970,2469.914,2020-2-21T15:18:27Z
2020-02-21T13:20:55Z,42.805,6.029,13.2968,4.59978,2469.9,2020-2-21T15:21:30Z
2020-02-21T13:23:58Z,42.805,6.029,13.2967,4.59971,2469.923,2020-2-21T15:24:33Z
2020-02-21T13:27:01Z,42.805,6.029,13.2968,4.59972,2469.89,2020-2-21T15:27:37Z
2020-02-21T13:30:05Z,42.805,6.029,13.2968,4.59974,2469.9,2020-2-21T15:30:40Z
2020-02-21T13:33:08Z,42.805,6.029,13.2968,4.59971,2469.89,2020-2-21T15:33:44Z
2020-02-21T13:36:11Z,42.805,6.029,13.2968,4.59972,2469.914,2020-2-21T15:36:47Z
2020-02-21T13:39:15Z,42.805,6.029,13.2972,4.59971,2469.9,2020-2-21T15:39:50Z
2020-02-21T13:42:18Z,42.805,6.029,13.2969,4.59971,2469.9,2020-2-21T15:42:53Z
2020-02-21T13:45:21Z,42.805,6.029,13.2972,4.59971,2469.923,2020-2-21T15:45:56Z
2020-02-21T13:48:24Z,42.805,6.029,13.2968,4.59973,2469.9,2020-2-21T15:49:00Z
2020-02-21T13:51:27Z,42.805,6.029,13.2967,4.59973,2469.914,2020-2-21T15:52:03Z
2020-02-21T13:54:31Z,42.805,6.029,13.2971,4.59972,2469.937,2020-2-21T15:55:06Z
2020-02-21T13:57:34Z,42.805,6.029,13.2968,4.59971,2469.96,2020-2-21T15:58:09Z
2020-02-21T14:00:37Z,42.805,6.029,13.2970,4.59971,2469.9,2020-2-21T16:01:13Z
2020-02-21T14:03:40Z,42.805,6.029,13.2974,4.59971,2469.9,2020-2-21T16:04:16Z
2020-02-21T14:06:44Z,42.805,6.029,13.2967,4.59971,2469.937,2020-2-21T16:07:19Z
2020-02-21T14:09:47Z,42.805,6.029,13.2971,4.59970,2469.9,2020-2-21T16:10:22Z
2020-02-21T14:12:50Z,42.805,6.029,13.2968,4.59971,2469.9,2020-2-21T16:13:25Z
2020-02-21T14:15:53Z,42.805,6.029,13.2971,4.59971,2469.914,2020-2-21T16:16:29Z
2020-02-21T14:18:57Z,42.805,6.029,13.2967,4.59971,2469.947,2020-2-21T16:19:32Z
2020-02-21T14:22:00Z,42.805,6.029,13.2969,4.59975,2469.937,2020-2-21T16:22:35Z
2020-02-21T14:25:03Z,42.805,6.029,13.2971,4.59971,2469.9,2020-2-21T16:25:38Z
2020-02-21T14:28:06Z,42.805,6.029,13.2971,4.59971,2469.923,2020-2-21T16:28:41Z
2020-02-21T14:31:09Z,42.805,6.029,13.2967,4.59970,2469.96,2020-2-21T16:31:45Z
2020-02-21T14:34:12Z,42.805,6.029,13.2967,4.59968,2469.923,2020-2-21T16:34:48Z
2020-02-21T14:37:16Z,42.805,6.029,13.2968,4.59973,2469.923,2020-2-21T16:37:51Z
2020-02-21T14:40:19Z,42.805,6.029,13.2971,4.59971,2469.947,2020-2-21T16:40:54Z
2020-02-21T14:43:22Z,42.805,6.029,13.2970,4.59972,2469.97,2020-2-21T16:43:57Z
2020-02-21T14:46:25Z,42.805,6.029,13.2969,4.59970,2469.947,2020-2-21T16:47:01Z
2020-02-21T14:49:29Z,42.805,6.029,13.2973,4.59971,2469.937,2020-2-21T16:50:04Z
2020-02-21T14:52:32Z,42.805,6.029,13.2966,4.59973,2469.923,2020-2-21T16:53:07Z
2020-02-21T14:55:35Z,42.805,6.029,13.2969,4.59970,2469.937,2020-2-21T16:56:10Z
2020-02-21T14:58:38Z,42.805,6.029,13.2969,4.59971,2469.9,2020-2-21T16:59:14Z
2020-02-21T15:01:41Z,42.805,6.029,13.2967,4.59969,2469.96,2020-2-21T17:02:17Z
2020-02-21T15:04:45Z,42.805,6.029,13.2968,4.59971,2469.923,2020-2-21T17:05:20Z
2020-02-21T15:07:48Z,42.805,6.029,13.2970,4.59971,2469.947,2020-2-21T17:08:23Z
2020-02-21T15:10:51Z,42.805,6.029,13.2970,4.59973,2469.909,2020-2-21T17:11:26Z
2020-02-21T15:13:54Z,42.805,6.029,13.2967,4.59970,2469.97,2020-2-21T17:14:30Z